Time,TemperatureF,DewpointF,PressureIn,WindDirection,WindDirectionDegrees,WindSpeedMPH,WindSpeedGustMPH,Humidity,HourlyPrecipIn,Conditions,Clouds,dailyrainin,SolarRadiationWatts/m^2,SoftwareType,DateUTC
2013-06-12 00:04:00,51.6,42.0,29.95,NNE,29,1.0,4.0,70,0.00,,,0.00,0,weatherlink.com 1.10,2013-06-12 07:04:00,
2013-06-12 00:19:00,51.8,42.0,29.95,NNE,29,1.0,5.0,70,0.00,,,0.00,0,weatherlink.com 1.10,2013-06-12 07:19:00,
2013-06-12 00:34:00,51.9,42.0,29.94,North,9,0.0,5.0,70,0.00,,,0.00,0,weatherlink.com 1.10,2013-06-12 07:34:00,
2013-06-12 00:49:00,52.0,42.0,29.94,North,10,0.0,4.0,70,0.00,,,0.00,0,weatherlink.com 1.10,2013-06-12 07:49:00,
2013-06-12 01:04:00,51.9,42.0,29.94,North,9,1.0,4.0,70,0.00,,,0.00,0,weatherlink.com 1.10,2013-06-12 08:04:00,
2013-06-12 01:19:00,51.0,42.0,29.94,NNE,19,3.0,5.0,70,0.00,,,0.00,0,weatherlink.com 1.10,2013-06-12 08:19:00,
2013-06-12 01:34:00,50.8,42.0,29.94,NNE,20,0.0,1.0,71,0.00,,,0.00,0,weatherlink.com 1.10,2013-06-12 08:34:00,
2013-06-12 01:49:00,50.8,42.0,29.93,NNE,19,0.0,1.0,71,0.00,,,0.00,0,weatherlink.com 1.10,2013-06-12 08:49:00,
2013-06-12 02:04:00,50.3,41.0,29.93,NNE,19,0.0,2.0,71,0.00,,,0.00,0,weatherlink.com 1.10,2013-06-12 09:04:00,
2013-06-12 02:19:00,50.7,42.0,29.93,NNW,333,3.0,4.0,71,0.00,,,0.00,0,weatherlink.com 1.10,2013-06-12 09:19:00,
2013-06-12 02:34:00,51.2,42.0,29.94,North,350,5.0,6.0,71,0.00,,,0.00,0,weatherlink.com 1.10,2013-06-12 09:34:00,
2013-06-12 02:49:00,51.0,42.0,29.93,North,360,1.0,3.0,71,0.00,,,0.00,0,weatherlink.com 1.10,2013-06-12 09:49:00,
2013-06-12 03:04:00,50.6,41.0,29.93,NNW,347,3.0,6.0,71,0.00,,,0.00,0,weatherlink.com 1.10,2013-06-12 10:04:00,
2013-06-12 03:19:00,50.5,41.0,29.93,North,355,3.0,6.0,71,0.00,,,0.00,0,weatherlink.com 1.10,2013-06-12 10:19:00,
2013-06-12 03:34:00,50.1,41.0,29.94,NNE,19,3.0,6.0,72,0.00,,,0.00,0,weatherlink.com 1.10,2013-06-12 10:34:00,
2013-06-12 03:49:00,49.7,41.0,29.94,North,5,4.0,6.0,72,0.00,,,0.00,0,weatherlink.com 1.10,2013-06-12 10:49:00,
2013-06-12 04:04:00,49.9,41.0,29.94,North,350,0.0,6.0,72,0.00,,,0.00,0,weatherlink.com 1.10,2013-06-12 11:04:00,
2013-06-12 04:19:00,49.7,41.0,29.94,NNW,342,5.0,5.0,72,0.00,,,0.00,0,weatherlink.com 1.10,2013-06-12 11:19:00,
2013-06-12 04:34:00,49.9,41.0,29.94,NNE,16,2.0,5.0,72,0.00,,,0.00,0,weatherlink.com 1.10,2013-06-12 11:34:00,
2013-06-12 04:49:00,49.9,41.0,29.95,North,5,3.0,3.0,72,0.00,,,0.00,0,weatherlink.com 1.10,2013-06-12 11:49:00,
2013-06-12 05:04:00,50.2,41.0,29.95,NNE,15,1.0,5.0,72,0.00,,,0.00,0,weatherlink.com 1.10,2013-06-12 12:04:00,
2013-06-12 05:19:00,50.3,41.0,29.95,NW,311,2.0,4.0,71,0.00,,,0.00,0,weatherlink.com 1.10,2013-06-12 12:19:00,
2013-06-12 05:34:00,49.3,41.0,29.96,North,360,1.0,4.0,72,0.00,,,0.00,0,weatherlink.com 1.10,2013-06-12 12:34:00,
2013-06-12 05:49:00,49.6,41.0,29.96,NNE,21,3.0,5.0,72,0.00,,,0.00,5,weatherlink.com 1.10,2013-06-12 12:49:00,
2013-06-12 06:04:00,49.4,41.0,29.96,NNE,21,0.0,4.0,72,0.00,,,0.00,12,weatherlink.com 1.10,2013-06-12 13:04:00,
2013-06-12 06:19:00,49.1,40.0,29.97,NNE,21,0.0,2.0,72,0.00,,,0.00,18,weatherlink.com 1.10,2013-06-12 13:19:00,
2013-06-12 06:34:00,47.4,39.0,29.97,NNE,28,4.0,5.0,72,0.00,,,0.00,23,weatherlink.com 1.10,2013-06-12 13:34:00,
2013-06-12 06:49:00,47.7,39.0,29.98,NE,34,2.0,6.0,73,0.00,,,0.00,130,weatherlink.com 1.10,2013-06-12 13:49:00,
2013-06-12 07:05:00,49.6,41.0,29.98,NE,46,2.0,4.0,73,0.00,,,0.00,181,weatherlink.com 1.10,2013-06-12 14:05:00,
2013-06-12 07:20:00,51.7,43.0,29.98,NE,46,3.0,4.0,72,0.00,,,0.00,243,weatherlink.com 1.10,2013-06-12 14:20:00,
2013-06-12 07:35:00,53.2,44.0,29.99,NE,56,0.0,0.0,72,0.00,,,0.00,295,weatherlink.com 1.10,2013-06-12 14:35:00,
2013-06-12 07:50:00,53.5,44.0,29.99,ENE,76,0.0,1.0,71,0.00,,,0.00,348,weatherlink.com 1.10,2013-06-12 14:50:00,
2013-06-12 08:05:00,54.3,45.0,30.00,South,176,1.0,3.0,70,0.00,,,0.00,396,weatherlink.com 1.10,2013-06-12 15:05:00,
2013-06-12 08:20:00,54.6,45.0,30.00,South,180,1.0,4.0,70,0.00,,,0.00,446,weatherlink.com 1.10,2013-06-12 15:20:00,
2013-06-12 08:35:00,55.5,46.0,30.00,NW,304,0.0,5.0,70,0.00,,,0.00,492,weatherlink.com 1.10,2013-06-12 15:35:00,
2013-06-12 08:50:00,57.3,48.0,30.00,WSW,256,2.0,7.0,70,0.00,,,0.00,541,weatherlink.com 1.10,2013-06-12 15:50:00,
2013-06-12 09:05:00,57.3,47.0,30.00,West,277,5.0,11.0,69,0.00,,,0.00,591,weatherlink.com 1.10,2013-06-12 16:05:00,
2013-06-12 09:20:00,57.4,47.0,30.00,NW,306,5.0,13.0,69,0.00,,,0.00,636,weatherlink.com 1.10,2013-06-12 16:20:00,
2013-06-12 09:35:00,57.4,47.0,30.00,West,267,5.0,12.0,69,0.00,,,0.00,679,weatherlink.com 1.10,2013-06-12 16:35:00,
2013-06-12 09:50:00,57.9,47.0,30.00,WSW,256,2.0,12.0,68,0.00,,,0.00,721,weatherlink.com 1.10,2013-06-12 16:50:00,
2013-06-12 10:05:00,57.7,47.0,30.00,West,277,5.0,14.0,68,0.00,,,0.00,763,weatherlink.com 1.10,2013-06-12 17:05:00,
2013-06-12 10:20:00,57.5,47.0,30.00,WNW,291,9.0,15.0,69,0.00,,,0.00,802,weatherlink.com 1.10,2013-06-12 17:20:00,
2013-06-12 10:36:00,57.7,47.0,30.00,West,267,11.0,16.0,68,0.00,,,0.00,838,weatherlink.com 1.10,2013-06-12 17:36:00,
2013-06-12 10:51:00,58.0,47.0,30.00,WNW,286,9.0,15.0,68,0.00,,,0.00,868,weatherlink.com 1.10,2013-06-12 17:51:00,
2013-06-12 11:21:00,57.7,47.0,30.01,WSW,255,7.0,18.0,68,0.00,,,0.00,926,weatherlink.com 1.10,2013-06-12 18:21:00,
2013-06-12 11:36:00,58.9,48.0,30.01,NW,311,7.0,18.0,67,0.00,,,0.00,949,weatherlink.com 1.10,2013-06-12 18:36:00,
2013-06-12 11:51:00,59.1,48.0,30.01,WSW,238,6.0,15.0,67,0.00,,,0.00,970,weatherlink.com 1.10,2013-06-12 18:51:00,
2013-06-12 12:06:00,59.3,48.0,30.00,WSW,243,3.0,19.0,67,0.00,,,0.00,983,weatherlink.com 1.10,2013-06-12 19:06:00,
2013-06-12 12:21:00,59.3,48.0,30.00,WNW,300,4.0,20.0,66,0.00,,,0.00,993,weatherlink.com 1.10,2013-06-12 19:21:00,
2013-06-12 12:36:00,58.7,48.0,30.01,NW,304,7.0,19.0,67,0.00,,,0.00,1004,weatherlink.com 1.10,2013-06-12 19:36:00,
2013-06-12 12:51:00,58.9,48.0,30.01,WSW,257,7.0,19.0,67,0.00,,,0.00,1013,weatherlink.com 1.10,2013-06-12 19:51:00,
2013-06-12 13:06:00,58.7,48.0,30.01,West,276,8.0,24.0,67,0.00,,,0.00,1014,weatherlink.com 1.10,2013-06-12 20:06:00,
2013-06-12 13:21:00,58.4,47.0,30.01,WNW,288,8.0,20.0,67,0.00,,,0.00,1016,weatherlink.com 1.10,2013-06-12 20:21:00,
2013-06-12 13:36:00,58.9,47.0,30.01,West,261,17.0,21.0,66,0.00,,,0.00,1009,weatherlink.com 1.10,2013-06-12 20:36:00,
2013-06-12 13:51:00,58.6,47.0,30.01,WNW,288,13.0,24.0,66,0.00,,,0.00,1002,weatherlink.com 1.10,2013-06-12 20:51:00,
2013-06-12 14:06:00,58.9,47.0,30.00,WSW,238,8.0,20.0,66,0.00,,,0.00,991,weatherlink.com 1.10,2013-06-12 21:06:00,
2013-06-12 14:21:00,59.0,48.0,30.00,West,259,11.0,21.0,66,0.00,,,0.00,976,weatherlink.com 1.10,2013-06-12 21:21:00,
2013-06-12 14:36:00,59.2,47.0,30.00,SSW,196,7.0,26.0,65,0.00,,,0.00,962,weatherlink.com 1.10,2013-06-12 21:36:00,
2013-06-12 14:51:00,59.3,48.0,30.00,West,269,11.0,23.0,66,0.00,,,0.00,940,weatherlink.com 1.10,2013-06-12 21:51:00,
2013-06-12 15:06:00,59.4,48.0,30.00,NW,311,8.0,22.0,66,0.00,,,0.00,916,weatherlink.com 1.10,2013-06-12 22:06:00,
2013-06-12 15:21:00,59.4,48.0,30.00,WNW,292,9.0,20.0,65,0.00,,,0.00,889,weatherlink.com 1.10,2013-06-12 22:21:00,
2013-06-12 15:36:00,59.3,47.0,30.00,NNW,328,12.0,22.0,65,0.00,,,0.00,860,weatherlink.com 1.10,2013-06-12 22:36:00,
2013-06-12 15:51:00,60.0,48.0,30.00,NW,307,8.0,21.0,65,0.00,,,0.00,828,weatherlink.com 1.10,2013-06-12 22:51:00,
2013-06-12 16:06:00,59.6,48.0,30.00,WSW,258,10.0,19.0,65,0.00,,,0.00,793,weatherlink.com 1.10,2013-06-12 23:06:00,
2013-06-12 16:21:00,59.6,48.0,30.00,WNW,282,5.0,19.0,65,0.00,,,0.00,752,weatherlink.com 1.10,2013-06-12 23:21:00,
2013-06-12 16:36:00,59.6,48.0,30.00,SW,234,5.0,20.0,65,0.00,,,0.00,714,weatherlink.com 1.10,2013-06-12 23:36:00,
2013-06-12 16:51:00,59.3,47.0,30.00,WNW,286,9.0,20.0,65,0.00,,,0.00,671,weatherlink.com 1.10,2013-06-12 23:51:00,
2013-06-12 17:06:00,59.2,48.0,30.00,WNW,303,6.0,17.0,66,0.00,,,0.00,624,weatherlink.com 1.10,2013-06-13 00:06:00,
2013-06-12 17:21:00,59.5,48.0,30.00,WSW,238,7.0,18.0,65,0.00,,,0.00,578,weatherlink.com 1.10,2013-06-13 00:21:00,
2013-06-12 17:36:00,59.9,48.0,29.99,West,277,6.0,17.0,65,0.00,,,0.00,534,weatherlink.com 1.10,2013-06-13 00:36:00,
2013-06-12 17:51:00,60.0,48.0,29.99,WSW,241,8.0,16.0,65,0.00,,,0.00,485,weatherlink.com 1.10,2013-06-13 00:51:00,
2013-06-12 18:06:00,59.1,47.0,30.00,WNW,301,7.0,16.0,65,0.00,,,0.00,436,weatherlink.com 1.10,2013-06-13 01:06:00,
2013-06-12 18:21:00,58.8,47.0,30.00,NNW,343,8.0,16.0,66,0.00,,,0.00,383,weatherlink.com 1.10,2013-06-13 01:21:00,
2013-06-12 18:36:00,58.9,47.0,30.00,West,268,3.0,17.0,66,0.00,,,0.00,336,weatherlink.com 1.10,2013-06-13 01:36:00,
2013-06-12 18:51:00,59.8,48.0,30.00,NNW,329,6.0,13.0,65,0.00,,,0.00,288,weatherlink.com 1.10,2013-06-13 01:51:00,
2013-06-12 19:06:00,59.8,48.0,30.01,WSW,256,4.0,14.0,65,0.00,,,0.00,236,weatherlink.com 1.10,2013-06-13 02:06:00,
2013-06-12 19:21:00,59.8,48.0,30.01,WSW,242,9.0,11.0,65,0.00,,,0.00,186,weatherlink.com 1.10,2013-06-13 02:21:00,
2013-06-12 19:36:00,59.8,47.0,30.01,WNW,284,11.0,12.0,64,0.00,,,0.00,132,weatherlink.com 1.10,2013-06-13 02:36:00,
2013-06-12 19:51:00,59.5,48.0,30.01,WSW,240,3.0,13.0,65,0.00,,,0.00,81,weatherlink.com 1.10,2013-06-13 02:51:00,
2013-06-12 20:06:00,58.8,47.0,30.01,WNW,290,2.0,9.0,65,0.00,,,0.00,42,weatherlink.com 1.10,2013-06-13 03:06:00,
2013-06-12 20:21:00,57.7,46.0,30.02,WNW,287,3.0,6.0,66,0.00,,,0.00,16,weatherlink.com 1.10,2013-06-13 03:21:00,
2013-06-12 20:36:00,56.7,46.0,30.02,WNW,299,0.0,2.0,67,0.00,,,0.00,7,weatherlink.com 1.10,2013-06-13 03:36:00,
2013-06-12 20:51:00,55.4,45.0,30.02,NW,311,0.0,3.0,67,0.00,,,0.00,0,weatherlink.com 1.10,2013-06-13 03:51:00,
2013-06-12 21:06:00,54.2,43.0,30.02,North,360,3.0,3.0,67,0.00,,,0.00,0,weatherlink.com 1.10,2013-06-13 04:06:00,
2013-06-12 21:21:00,52.9,43.0,30.02,NNE,13,3.0,4.0,69,0.00,,,0.00,0,weatherlink.com 1.10,2013-06-13 04:21:00,
2013-06-12 21:36:00,52.2,42.0,30.02,NNE,14,1.0,4.0,69,0.00,,,0.00,0,weatherlink.com 1.10,2013-06-13 04:36:00,
2013-06-12 21:51:00,52.4,43.0,30.03,NNE,14,0.0,4.0,70,0.00,,,0.00,0,weatherlink.com 1.10,2013-06-13 04:51:00,
2013-06-12 22:06:00,52.1,43.0,30.03,NNE,13,1.0,4.0,70,0.00,,,0.00,0,weatherlink.com 1.10,2013-06-13 05:06:00,
2013-06-12 22:21:00,51.9,42.0,30.04,North,5,0.0,3.0,70,0.00,,,0.00,0,weatherlink.com 1.10,2013-06-13 05:21:00,
2013-06-12 22:36:00,52.0,42.0,30.03,NW,325,2.0,4.0,70,0.00,,,0.00,0,weatherlink.com 1.10,2013-06-13 05:36:00,
2013-06-12 23:07:00,52.5,43.0,30.04,WNW,301,2.0,7.0,70,0.00,,,0.00,0,weatherlink.com 1.10,2013-06-13 06:07:00,
2013-06-12 23:22:00,52.8,43.0,30.05,NW,313,2.0,6.0,69,0.00,,,0.00,0,weatherlink.com 1.10,2013-06-13 06:22:00,
2013-06-12 23:37:00,53.0,43.0,30.04,NW,317,2.0,8.0,69,0.00,,,0.00,0,weatherlink.com 1.10,2013-06-13 06:37:00,
2013-06-12 23:52:00,53.0,43.0,30.05,NW,324,1.0,6.0,69,0.00,,,0.00,0,weatherlink.com 1.10,2013-06-13 06:52:00,